Seattle, WA
on Monday, February 11, 2013

Monday
Previous Day Next Day
Daily Summary
 ActualAverageRecord
Temperature
Mean Temperature °F 43°F  
Max Temperature 47°F 50°F 62°F (1963)
Min Temperature 40°F 37°F 23°F (1948)
Degree Days
Heating Degree Days 21 22  
Month to date heating degree days 228 242  
Since 1 July heating degree days 2802 2891  
Cooling Degree Days 0 0  
Month to date cooling degree days 0 0  
Year to date cooling degree days 0 0  
Moisture
Dew Point 38°F   
Average Humidity 79    
Maximum Humidity 92    
Minimum Humidity 65    
Precipitation
Precipitation 0.01 in 0.13 in 0.81 in (1975)
Month to date precipitation 0.34 1.46  
Year to date precipitation 4.50 7.03  
Snow
Snow 0.00 in in 1.10 in (1981)
Month to date snowfall 0.0  
Since 1 July snowfall 0.6  
Snow Depth 0.00 in   
Wind
Wind Speed 3 mph   
Max Wind Speed 8 mph   
Max Gust Speed 12 mph   
Visibility 9 miles   
Events Rain   

Key: T is trace of precipitation, MM is missing value
Source: NWS Daily Summary
Time(PST)TemperatureDew PointHumidity Pressure Visibility Wind DirectionWind SpeedGust SpeedPrecipitationEvents Conditions
12:53 AM 42.1°F 37.0°F 82% 30.38 in 10.0 miles North 3.5 mph - N/A   Overcast
1:44 AM 42.8°F 37.4°F 81% 30.35 in 7.0 miles ENE 4.6 mph - 0.00 in Rain Light Rain
1:53 AM 42.1°F 37.0°F 82% 30.38 in 7.0 miles ENE 4.6 mph - 0.00 in Rain Light Rain
2:53 AM 41.0°F 36.0°F 82% 30.36 in 10.0 miles ESE 3.5 mph - 0.00 in   Overcast
3:53 AM 41.0°F 37.0°F 86% 30.35 in 7.0 miles Calm Calm - N/A   Overcast
4:53 AM 41.0°F 37.0°F 86% 30.37 in 10.0 miles Calm Calm - 0.00 in   Overcast
5:53 AM 41.0°F 37.0°F 86% 30.37 in 10.0 miles Calm Calm - N/A   Mostly Cloudy
6:53 AM 39.9°F 36.0°F 86% 30.36 in 10.0 miles Calm Calm - N/A   Mostly Cloudy
7:12 AM 41.0°F 37.4°F 87% 30.34 in 8.0 miles Calm Calm - N/A   Overcast
7:53 AM 41.0°F 37.0°F 86% 30.36 in 9.0 miles South 3.5 mph - N/A   Overcast
8:53 AM 42.1°F 37.0°F 82% 30.37 in 9.0 miles Calm Calm - N/A   Overcast
9:47 AM 42.8°F 37.4°F 81% 30.36 in 8.0 miles SSE 3.5 mph - 0.00 in Rain Light Rain
9:53 AM 43.0°F 37.9°F 82% 30.39 in 8.0 miles South 3.5 mph - 0.00 in Rain Light Rain
10:31 AM 44.6°F 37.4°F 76% 30.36 in 10.0 miles SE 5.8 mph - 0.00 in   Overcast
10:53 AM 44.1°F 37.0°F 76% 30.38 in 10.0 miles South 4.6 mph - 0.00 in   Overcast
11:40 AM 44.6°F 37.4°F 76% 30.35 in 10.0 miles South 4.6 mph - 0.00 in Rain Light Rain
11:53 AM 46.0°F 37.0°F 71% 30.38 in 10.0 miles South 5.8 mph - 0.00 in Rain Light Rain
12:46 PM 46.4°F 35.6°F 66% 30.33 in 10.0 miles SSW 6.9 mph - 0.00 in   Overcast
12:53 PM 46.9°F 36.0°F 66% 30.36 in 10.0 miles South 4.6 mph - 0.00 in   Overcast
1:53 PM 46.9°F 37.0°F 68% 30.35 in 10.0 miles SSW 6.9 mph - N/A   Overcast
2:53 PM 46.9°F 36.0°F 66% 30.35 in 10.0 miles SW 6.9 mph - N/A   Overcast
3:53 PM 46.9°F 37.9°F 71% 30.36 in 10.0 miles Variable 5.8 mph - N/A   Overcast
4:53 PM 46.0°F 39.0°F 76% 30.36 in 10.0 miles SSW 4.6 mph - N/A   Overcast
5:53 PM 46.0°F 39.0°F 76% 30.36 in 10.0 miles Calm Calm - N/A   Overcast
6:53 PM 46.0°F 39.0°F 76% 30.37 in 10.0 miles Calm Calm - N/A   Overcast
7:53 PM 45.0°F 39.0°F 80% 30.37 in 10.0 miles Calm Calm - N/A   Overcast
8:53 PM 46.0°F 39.0°F 76% 30.36 in 10.0 miles SE 5.8 mph - N/A   Overcast
9:53 PM 45.0°F 39.9°F 82% 30.37 in 10.0 miles SSE 3.5 mph - N/A   Overcast
10:34 PM 44.6°F 42.8°F 93% 30.34 in 5.0 miles SSE 4.6 mph - 0.00 in Rain Light Rain
10:53 PM 45.0°F 42.1°F 90% 30.37 in 5.0 miles South 3.5 mph - 0.00 in   Overcast
11:53 PM 45.0°F 42.1°F 90% 30.38 in 5.0 miles SE 4.6 mph - N/A   Overcast
Moon Phase
Feb. 11 Feb. 17 Feb. 25 Mar. 04 Mar. 11
Sunrise:07:20 AM (PST) Moon Rise:07:37 AM (PST)2/11
Sunset:05:27 PM (PST) Moon Set:07:42 PM (PST)2/11

Copyright © 2014 The Weather Underground, Inc.